Location: Campo Alegre
(10.4289°N, 66.6519°W)
Time: 00:19:23
(UTC+00:00)

USA 290 - Pass Details

Date: 29 May 2024
Orbit: 403 x 414 km, 73.6° (Epoch: 12 May)

Event Time Altitude Azimuth Distance (km) Brightness Sun altitude
Rises 23:40:59 0° 357° (N) 2,309 6.4 -13.5°
Reaches altitude 10° 23:43:06 10° 5° (N) 1,451 5.2 -13.9°
Maximum altitude 23:46:06 39° 76° (ENE) 617 2.7 -14.6°
Enters shadow 23:46:55 32° 114° (ESE) 714 2.8 -14.8°
